• en Suisse
  • Liste des pays
  • À 7 jours
  • Température de l'eau
  • Carte satellitaire
  • Carte météo
  • Widgets météo
  • user-avatar
    Se connecter

    Météo par heure à Tadzhura

    Ce jour, 21 Juin, Jeudi

    Heure Température Précipitation Vent Pression Humidité
    00:00 +40°C° 0 mm 3 m/s 752 mmHg 30%
    01:00 +39°C° 0 mm 2 m/s 752 mmHg 31%
    02:00 +39°C° 0 mm 2 m/s 752 mmHg 32%
    03:00 +37°C° 0 mm 1 m/s 752 mmHg 35%
    04:00 +37°C° 0 mm 1 m/s 752 mmHg 35%
    05:00 +37°C° 0 mm 1 m/s 752 mmHg 35%
    06:00 +36°C° 0 mm 1 m/s 752 mmHg 35%
    07:00 +39°C° 0 mm 2 m/s 752 mmHg 31%
    08:00 +40°C° 0 mm 3 m/s 753 mmHg 27%
    09:00 +42°C° 0 mm 3 m/s 753 mmHg 24%
    10:00 +44°C° 0 mm 4 m/s 753 mmHg 22%
    11:00 +45°C° 0 mm 4 m/s 752 mmHg 19%
    12:00 +47°C° 0 mm 4 m/s 752 mmHg 17%
    13:00 +47°C° 0 mm 4 m/s 752 mmHg 17%
    14:00 +47°C° 0 mm 4 m/s 751 mmHg 17%
    15:00 +48°C° 0 mm 4 m/s 751 mmHg 16%
    16:00 +47°C° 0 mm 4 m/s 750 mmHg 18%
    17:00 +46°C° 0 mm 5 m/s 750 mmHg 20%
    18:00 +46°C° 0 mm 5 m/s 750 mmHg 21%
    19:00 +45°C° 0 mm 5 m/s 750 mmHg 25%
    20:00 +43°C° 0 mm 5 m/s 750 mmHg 28%
    21:00 +42°C° 0 mm 4 m/s 751 mmHg 32%
    22:00 +42°C° 0 mm 4 m/s 751 mmHg 31%
    23:00 +41°C° 0 mm 4 m/s 751 mmHg 30%

    Demain, 22 Juin, Vendredi

    Heure Température Précipitation Vent Pression Humidité
    00:00 +40°C° 0 mm 3 m/s 751 mmHg 29%
    01:00 +40°C° 0 mm 3 m/s 751 mmHg 29%
    02:00 +39°C° 0 mm 2 m/s 751 mmHg 29%
    03:00 +39°C° 0 mm 2 m/s 750 mmHg 29%
    04:00 +39°C° 0 mm 2 m/s 750 mmHg 29%
    05:00 +38°C° 0 mm 3 m/s 750 mmHg 29%
    06:00 +38°C° 0 mm 3 m/s 751 mmHg 28%
    07:00 +41°C° 0 mm 4 m/s 751 mmHg 25%
    08:00 +42°C° 0 mm 4 m/s 751 mmHg 22%
    09:00 +45°C° 0 mm 5 m/s 751 mmHg 19%
    10:00 +46°C° 0 mm 5 m/s 751 mmHg 18%
    11:00 +47°C° 0 mm 5 m/s 751 mmHg 16%
    12:00 +48°C° 0 mm 5 m/s 751 mmHg 15%
    13:00 +48°C° 0 mm 5 m/s 750 mmHg 14%
    14:00 +48°C° 0 mm 5 m/s 749 mmHg 14%
    15:00 +49°C° 0 mm 4 m/s 749 mmHg 13%
    16:00 +48°C° 0 mm 5 m/s 749 mmHg 15%
    17:00 +47°C° 0 mm 5 m/s 748 mmHg 18%
    18:00 +46°C° 0 mm 5 m/s 748 mmHg 20%
    19:00 +44°C° 0 mm 4 m/s 749 mmHg 23%
    20:00 +43°C° 0 mm 4 m/s 749 mmHg 27%
    21:00 +42°C° 0 mm 4 m/s 749 mmHg 30%
    22:00 +42°C° 0 mm 3 m/s 750 mmHg 31%
    23:00 +40°C° 0 mm 3 m/s 750 mmHg 32%

    Après-demain, 23 Juin, Samedi

    Heure Température Précipitation Vent Pression Humidité
    00:00 +40°C° 0 mm 3 m/s 750 mmHg 33%
    01:00 +40°C° 0 mm 3 m/s 750 mmHg 33%
    02:00 +40°C° 0 mm 2 m/s 749 mmHg 34%
    03:00 +39°C° 0 mm 2 m/s 749 mmHg 34%
    04:00 +39°C° 0 mm 2 m/s 749 mmHg 35%
    05:00 +39°C° 0 mm 2 m/s 750 mmHg 35%
    06:00 +38°C° 0 mm 2 m/s 750 mmHg 35%
    07:00 +39°C° 0 mm 3 m/s 750 mmHg 33%
    08:00 +40°C° 0 mm 3 m/s 751 mmHg 30%
    09:00 +42°C° 0 mm 4 m/s 751 mmHg 28%
    10:00 +43°C° 0 mm 4 m/s 751 mmHg 25%
    11:00 +44°C° 0 mm 4 m/s 751 mmHg 21%
    12:00 +47°C° 0 mm 5 m/s 751 mmHg 18%
    13:00 +47°C° 0 mm 4 m/s 750 mmHg 19%
    14:00 +47°C° 0 mm 4 m/s 749 mmHg 20%
    15:00 +46°C° 0 mm 3 m/s 749 mmHg 21%
    16:00 +45°C° 0 mm 3 m/s 748 mmHg 24%
    17:00 +44°C° 0 mm 3 m/s 748 mmHg 28%
    18:00 +43°C° 0 mm 3 m/s 748 mmHg 31%
    19:00 +42°C° 0 mm 3 m/s 749 mmHg 33%
    20:00 +42°C° 0 mm 3 m/s 749 mmHg 34%
    21:00 +40°C° 0 mm 2 m/s 749 mmHg 35%
    22:00 +40°C° 0 mm 2 m/s 750 mmHg 34%
    23:00 +40°C° 0 mm 1 m/s 750 mmHg 34%

    24 Juin, Dimanche

    Heure Température Précipitation Vent Pression Humidité
    00:00 +40°C° 0 mm 1 m/s 750 mmHg 33%
    01:00 +39°C° 0 mm 1 m/s 749 mmHg 33%
    02:00 +39°C° 0 mm 1 m/s 749 mmHg 34%
    03:00 +39°C° 0 mm 1 m/s 749 mmHg 34%
    04:00 +37°C° 0 mm 1 m/s 749 mmHg 35%
    05:00 +37°C° 0 mm 1 m/s 749 mmHg 35%
    06:00 +36°C° 0 mm 1 m/s 750 mmHg 36%
    07:00 +38°C° 0 mm 2 m/s 750 mmHg 33%
    08:00 +39°C° 0 mm 2 m/s 751 mmHg 30%
    09:00 +42°C° 0 mm 3 m/s 752 mmHg 27%
    10:00 +43°C° 0 mm 3 m/s 751 mmHg 25%
    11:00 +44°C° 0 mm 3 m/s 751 mmHg 23%
    12:00 +44°C° 0 mm 3 m/s 751 mmHg 21%
    13:00 +45°C° 0 mm 3 m/s 750 mmHg 20%
    14:00 +46°C° 0 mm 3 m/s 749 mmHg 19%
    15:00 +47°C° 0 mm 4 m/s 749 mmHg 17%
    16:00 +46°C° 0 mm 5 m/s 749 mmHg 20%
    17:00 +46°C° 0 mm 7 m/s 749 mmHg 23%
    18:00 +45°C° 0 mm 9 m/s 749 mmHg 26%
    19:00 +44°C° 0 mm 8 m/s 750 mmHg 28%
    20:00 +42°C° 0 mm 6 m/s 750 mmHg 30%
    21:00 +41°C° 0 mm 5 m/s 751 mmHg 32%
    22:00 +41°C° 0 mm 5 m/s 751 mmHg 34%
    23:00 +40°C° 0 mm 5 m/s 751 mmHg 35%

    25 Juin, Lundi

    Heure Température Précipitation Vent Pression Humidité
    00:00 +40°C° 0 mm 4 m/s 751 mmHg 37%
    01:00 +40°C° 0,1 mm 4 m/s 751 mmHg 40%
    02:00 +38°C° 0,1 mm 4 m/s 750 mmHg 43%
    03:00 +38°C° 0,1 mm 4 m/s 750 mmHg 46%
    04:00 +37°C° 0,2 mm 4 m/s 751 mmHg 45%
    05:00 +37°C° 0,2 mm 3 m/s 751 mmHg 45%
    06:00 +37°C° 0,2 mm 3 m/s 751 mmHg 45%
    07:00 +38°C° 0 mm 3 m/s 752 mmHg 40%
    08:00 +38°C° 0 mm 4 m/s 752 mmHg 36%
    09:00 +40°C° 0 mm 4 m/s 753 mmHg 32%
    10:00 +41°C° 0 mm 4 m/s 752 mmHg 29%
    11:00 +42°C° 0 mm 4 m/s 752 mmHg 27%
    12:00 +43°C° 0 mm 3 m/s 751 mmHg 24%
    13:00 +44°C° 0 mm 3 m/s 751 mmHg 23%
    14:00 +44°C° 0 mm 3 m/s 750 mmHg 21%
    15:00 +45°C° 0 mm 3 m/s 749 mmHg 19%
    16:00 +45°C° 0 mm 4 m/s 749 mmHg 21%
    17:00 +45°C° 0 mm 5 m/s 749 mmHg 22%
    18:00 +45°C° 0 mm 6 m/s 749 mmHg 24%
    19:00 +44°C° 0,2 mm 6 m/s 750 mmHg 26%
    20:00 +42°C° 0,2 mm 5 m/s 750 mmHg 29%
    21:00 +41°C° 0,2 mm 5 m/s 751 mmHg 31%
    22:00 +41°C° 0 mm 5 m/s 751 mmHg 32%
    23:00 +40°C° 0 mm 4 m/s 751 mmHg 32%

    26 Juin, Mardi

    Heure Température Précipitation Vent Pression Humidité
    00:00 +39°C° 0 mm 3 m/s 751 mmHg 33%
    01:00 +39°C° 0 mm 3 m/s 750 mmHg 34%
    02:00 +38°C° 0 mm 2 m/s 750 mmHg 35%
    03:00 +38°C° 0 mm 2 m/s 750 mmHg 36%
    04:00 +37°C° 0 mm 1 m/s 750 mmHg 37%
    05:00 +36°C° 0 mm 1 m/s 751 mmHg 38%
    06:00 +36°C° 0 mm 1 m/s 751 mmHg 39%
    07:00 +37°C° 0 mm 1 m/s 752 mmHg 36%
    08:00 +39°C° 0 mm 2 m/s 752 mmHg 32%
    09:00 +40°C° 0 mm 3 m/s 752 mmHg 29%
    10:00 +42°C° 0 mm 3 m/s 752 mmHg 27%
    11:00 +43°C° 0 mm 3 m/s 751 mmHg 24%
    12:00 +44°C° 0 mm 3 m/s 751 mmHg 22%
    13:00 +45°C° 0 mm 3 m/s 750 mmHg 21%
    14:00 +45°C° 0 mm 3 m/s 749 mmHg 20%
    15:00 +45°C° 0 mm 3 m/s 749 mmHg 19%
    16:00 +45°C° 0,1 mm 3 m/s 749 mmHg 21%
    17:00 +44°C° 0,1 mm 3 m/s 749 mmHg 22%
    18:00 +44°C° 0,1 mm 3 m/s 749 mmHg 24%
    19:00 +43°C° 0 mm 3 m/s 749 mmHg 26%
    20:00 +43°C° 0 mm 3 m/s 750 mmHg 28%
    21:00 +42°C° 0 mm 3 m/s 750 mmHg 30%
    22:00 +42°C° 0 mm 3 m/s 750 mmHg 30%
    23:00 +40°C° 0 mm 2 m/s 750 mmHg 31%
    Voir plus